Weather History for Monroe, MI

Change the Weather History Date:

Saturday, July 20, 2013

  Actual Average Record
Temperature  
Mean Temperature 79 °F -  
Max Temperature 87 °F 85 °F 98 °F (1946)
Min Temperature 71 °F 65 °F 48 °F (1997)
Cooling Degree Days 14    
Growing Degree Days 29 (Base 50)    
Moisture  
Dew Point 69 °F    
Average Humidity 76    
Maximum Humidity 100    
Minimum Humidity 46    
Precipitation  
Precipitation 0.00 in - - ()
Sea Level Pressure  
Sea Level Pressure 29.82 in    
Wind  
Wind Speed 8 mph (NW)    
Max Wind Speed 18 mph    
Max Gust Speed 40 mph    
Visibility 10 miles    
Events Rain    
Averages and records for this station are not official NWS values.
T = Trace of Precipitation, MM = Missing Value Source: NWS Daily Summary

Daily Weather History Graph

Daily Weather History Graph

Search for Another Location

Airport:

Trip Planner

Search our weather history database for the weather conditions in past years. The results will help you decide how hot, cold, wet, or windy it might be!

Date:

Astronomy

Jul. 20, 2013 Rise Set
Actual Time 6:16 AM EDT 9:03 PM EDT
Civil Twilight 5:43 AM EDT 9:36 PM EDT
Nautical Twilight 5:02 AM EDT 10:17 PM EDT
Astronomical Twilight 4:14 AM EDT 11:04 PM EDT
Moon 7:05 PM EDT (7/20) 3:55 AM EDT (7/20)
Length of Visible Light 15h 52m
Length of Day
14h 47m
Waxing Gibbous, 93% of the Moon is Illuminated
Jul 20
Waxing Gibbous
Jul 22
Full
Jul 29
Last Quarter
Aug 6
New
Aug 14
First Quarter

Hourly Weather History & Observations

Time (EDT) Temp. Heat Index Dew Point Humidity Pressure Visibility Wind Dir Wind Speed Gust Speed Precip Events Conditions
12:14 AM 84.2 °F 90.9 °F 73.4 °F 70% 29.76 in 10.0 mi SW 13.8 mph - N/A   Mostly Cloudy
12:34 AM 84.2 °F 90.9 °F 73.4 °F 70% 29.76 in 10.0 mi SW 18.4 mph 23.0 mph N/A   Scattered Clouds
12:54 AM 84.2 °F 90.9 °F 73.4 °F 70% 29.77 in 10.0 mi SW 18.4 mph 24.2 mph N/A   Scattered Clouds
1:14 AM 84.2 °F 90.9 °F 73.4 °F 70% 29.76 in 10.0 mi SW 17.3 mph 23.0 mph N/A   Scattered Clouds
1:34 AM 80.6 °F 82.3 °F 64.4 °F 58% 29.80 in 10.0 mi NW 18.4 mph 33.4 mph N/A   Mostly Cloudy
1:54 AM 71.6 °F - 68.0 °F 88% 29.83 in 1.2 mi WSW 17.3 mph 40.3 mph N/A Rain Heavy Rain
2:14 AM 71.6 °F - 69.8 °F 94% 29.80 in 7.0 mi WSW 16.1 mph - N/A Rain Heavy Rain
2:34 AM 71.6 °F - 69.8 °F 94% 29.78 in 3.0 mi West 17.3 mph 34.5 mph N/A Rain Heavy Rain
2:55 AM 71.6 °F - 69.8 °F 94% 29.76 in 10.0 mi WSW 11.5 mph 17.3 mph N/A Rain Rain
3:15 AM 71.6 °F - 69.8 °F 94% 29.77 in 7.0 mi SW 11.5 mph - N/A Rain Rain
3:35 AM 71.6 °F - 69.8 °F 94% 29.76 in 10.0 mi WSW 9.2 mph 18.4 mph N/A Rain Light Rain
3:55 AM 71.6 °F - 69.8 °F 94% 29.73 in 10.0 mi SSW 6.9 mph - N/A Rain Light Rain
4:15 AM 71.6 °F - 69.8 °F 94% 29.74 in 10.0 mi SW 6.9 mph - N/A   Scattered Clouds
4:35 AM 71.6 °F - 69.8 °F 94% 29.75 in 10.0 mi West 3.5 mph - N/A   Clear
4:55 AM 71.6 °F - 69.8 °F 94% 29.76 in 10.0 mi SW 4.6 mph - N/A   Mostly Cloudy
5:15 AM 71.6 °F - 69.8 °F 94% 29.76 in 10.0 mi Calm Calm - N/A   Overcast
5:35 AM 73.4 °F - 69.8 °F 88% 29.76 in 10.0 mi Calm Calm - N/A   Overcast
5:55 AM 71.6 °F - 69.8 °F 94% 29.77 in 10.0 mi Calm Calm - N/A Rain Light Rain
6:16 AM 71.6 °F - 71.6 °F 100% 29.78 in 10.0 mi Calm Calm - N/A   Mostly Cloudy
6:36 AM 73.4 °F - 71.6 °F 94% 29.80 in 10.0 mi Calm Calm - N/A   Overcast
6:56 AM 73.4 °F - 71.6 °F 94% 29.80 in 10.0 mi Calm Calm - N/A   Overcast
7:16 AM 73.4 °F - 71.6 °F 94% 29.80 in 10.0 mi Calm Calm - N/A   Overcast
7:36 AM 73.4 °F - 71.6 °F 94% 29.81 in 10.0 mi Calm Calm - N/A   Overcast
7:51 AM 73.4 °F - 71.6 °F 94% 29.82 in 10.0 mi Calm Calm - N/A   Overcast
8:11 AM 73.4 °F - 71.6 °F 94% 29.81 in 10.0 mi Calm Calm - N/A   Overcast
8:31 AM 73.4 °F - 71.6 °F 94% 29.81 in 10.0 mi Calm Calm - N/A   Overcast
8:52 AM 75.2 °F - 71.6 °F 89% 29.83 in 10.0 mi Calm Calm - N/A   Overcast
9:12 AM 75.2 °F - 71.6 °F 89% 29.83 in 10.0 mi Calm Calm - N/A   Overcast
9:32 AM 75.2 °F - 71.6 °F 89% 29.83 in 10.0 mi Calm Calm - N/A   Overcast
9:52 AM 75.2 °F - 71.6 °F 89% 29.84 in 10.0 mi Calm Calm - N/A   Overcast
10:12 AM 77.0 °F - 71.6 °F 83% 29.83 in 10.0 mi North 3.5 mph - N/A   Overcast
10:32 AM 77.0 °F - 71.6 °F 83% 29.84 in 10.0 mi North 5.8 mph - N/A   Overcast
10:52 AM 75.2 °F - 71.6 °F 89% 29.84 in 10.0 mi Calm Calm - N/A   Overcast
11:12 AM 78.8 °F - 73.4 °F 83% 29.84 in 10.0 mi NNE 3.5 mph - N/A   Mostly Cloudy
11:32 AM 78.8 °F - 71.6 °F 78% 29.84 in 10.0 mi Calm Calm - N/A   Scattered Clouds
11:52 AM 78.8 °F - 73.4 °F 83% 29.84 in 10.0 mi Calm Calm - N/A   Mostly Cloudy
12:12 PM 80.6 °F 85.4 °F 73.4 °F 79% 29.84 in 10.0 mi North 5.8 mph - N/A   Mostly Cloudy
12:33 PM 80.6 °F 84.6 °F 71.6 °F 74% 29.84 in 10.0 mi Calm Calm - N/A   Scattered Clouds
12:53 PM 80.6 °F 84.6 °F 71.6 °F 74% 29.84 in 10.0 mi West 4.6 mph - N/A   Scattered Clouds
1:13 PM 80.6 °F 84.6 °F 71.6 °F 74% 29.84 in 10.0 mi WSW 4.6 mph - N/A   Clear
1:33 PM 82.4 °F 87.2 °F 71.6 °F 70% 29.84 in 10.0 mi NW 4.6 mph - N/A   Scattered Clouds
1:53 PM 82.4 °F 87.2 °F 71.6 °F 70% 29.84 in 10.0 mi WNW 5.8 mph - N/A   Scattered Clouds
2:13 PM 84.2 °F 89.6 °F 71.6 °F 66% 29.84 in 10.0 mi WNW 3.5 mph - N/A   Clear
2:33 PM 84.2 °F 89.6 °F 71.6 °F 66% 29.83 in 10.0 mi WNW 6.9 mph - N/A   Scattered Clouds
2:53 PM 84.2 °F 89.6 °F 71.6 °F 66% 29.83 in 10.0 mi North 4.6 mph - N/A   Mostly Cloudy
3:13 PM 84.2 °F 89.6 °F 71.6 °F 66% 29.82 in 10.0 mi NNW 5.8 mph - N/A   Mostly Cloudy
3:34 PM 84.2 °F 88.4 °F 69.8 °F 62% 29.82 in 10.0 mi North 5.8 mph - N/A   Scattered Clouds
3:54 PM 86.0 °F 90.4 °F 69.8 °F 58% 29.82 in 10.0 mi NW 8.1 mph - N/A   Scattered Clouds
4:14 PM 87.8 °F 91.4 °F 68.0 °F 52% 29.82 in 10.0 mi NW 5.8 mph - N/A   Scattered Clouds
4:34 PM 87.8 °F 89.4 °F 64.4 °F 46% 29.82 in 10.0 mi NW 9.2 mph - N/A   Scattered Clouds
4:54 PM 86.0 °F 87.3 °F 64.4 °F 48% 29.83 in 10.0 mi NNW 8.1 mph - N/A   Scattered Clouds
5:14 PM 86.0 °F 87.3 °F 64.4 °F 48% 29.83 in 10.0 mi NNW 8.1 mph - N/A   Clear
5:34 PM 84.2 °F 85.6 °F 64.4 °F 51% 29.83 in 10.0 mi NW 4.6 mph - N/A   Clear
5:54 PM 84.2 °F 85.6 °F 64.4 °F 51% 29.83 in 10.0 mi NNW 3.5 mph - N/A   Clear
6:14 PM 84.2 °F 86.6 °F 66.2 °F 55% 29.83 in 10.0 mi NW 4.6 mph - N/A   Clear
6:34 PM 84.2 °F 86.6 °F 66.2 °F 55% 29.83 in 10.0 mi NW 3.5 mph - N/A   Clear
6:55 PM 84.2 °F 86.6 °F 66.2 °F 55% 29.83 in 10.0 mi NNW 3.5 mph - N/A   Clear
7:15 PM 82.4 °F 84.6 °F 66.2 °F 58% 29.84 in 10.0 mi Calm Calm - N/A   Clear
7:35 PM 82.4 °F 84.6 °F 66.2 °F 58% 29.84 in 10.0 mi NW 3.5 mph - N/A   Mostly Cloudy
7:55 PM 82.4 °F 84.6 °F 66.2 °F 58% 29.85 in 10.0 mi NNW 3.5 mph - N/A   Mostly Cloudy
8:15 PM 82.4 °F 85.4 °F 68.0 °F 62% 29.85 in 10.0 mi Calm Calm - N/A   Scattered Clouds
8:35 PM 80.6 °F 84.6 °F 71.6 °F 74% 29.85 in 10.0 mi Calm Calm - N/A   Clear
8:55 PM 78.8 °F - 71.6 °F 78% 29.86 in 10.0 mi Calm Calm - N/A   Clear
9:15 PM 78.8 °F - 62.6 °F 57% 29.86 in 10.0 mi North 8.1 mph - N/A   Clear
9:35 PM 75.2 °F - 64.4 °F 69% 29.87 in 2.0 mi NNW 4.6 mph - N/A   Haze
9:55 PM 75.2 °F - 64.4 °F 69% 29.89 in 10.0 mi NNW 5.8 mph - N/A   Clear
10:16 PM 75.2 °F - 64.4 °F 69% 29.90 in 10.0 mi North 3.5 mph - N/A   Clear
10:36 PM 73.4 °F - 64.4 °F 73% 29.91 in 10.0 mi North 3.5 mph - N/A   Clear
10:56 PM 73.4 °F - 62.6 °F 69% 29.91 in 10.0 mi NNE 3.5 mph - N/A   Clear
11:16 PM 73.4 °F - 64.4 °F 73% 29.91 in 10.0 mi Calm Calm - N/A   Clear
11:36 PM 71.6 °F - 64.4 °F 78% 29.92 in 10.0 mi Calm Calm - N/A   Clear
11:56 PM 71.6 °F - 64.4 °F 78% 29.91 in 10.0 mi NE 3.5 mph - N/A   Clear